QPF
0.00 0.00 0.00 0.00 0.00 0.00 0.00 0.00 0.00 0.01 0.03 0.04 0.08 0.14 0.20 0.25 0.32 0.38 0.41 0.37 0.33 0.32 0.32 0.30 0.29 0.27 0.25 0.23 0.20 0.16 0.13 0.11 0.09 0.06 0.03 0.02 0.01 0.00 0.00 0.00 0.00 0.00 0.00
0.00 0.00 0.00 0.00 0.00 0.00 0.00 0.01 0.02 0.04 0.09 0.15 0.28 0.39 0.45 0.57 0.71 0.76 0.64 0.55 0.52 0.49 0.45 0.44 0.42 0.39 0.38 0.35 0.29 0.24 0.19 0.13 0.09 0.05 0.02 0.01 0.00 0.00 0.00 0.00 0.00 0.00 0.00
0.00 0.00 0.00 0.00 0.00 0.00 0.02 0.03 0.04 0.07 0.14 0.23 0.38 0.51 0.66 0.76 0.80 0.73 0.61 0.55 0.57 0.58 0.55 0.53 0.53 0.51 0.48 0.43 0.35 0.25 0.16 0.09 0.04 0.02 0.01 0.01 0.00 0.00 0.00 0.00 0.00 0.00 0.00
0.00 0.00 0.00 0.00 0.00 0.00 0.01 0.02 0.03 0.07 0.15 0.24 0.37 0.57 0.72 0.78 0.81 0.72 0.59 0.56 0.54 0.47 0.46 0.53 0.57 0.55 0.47 0.36 0.25 0.16 0.07 0.03 0.02 0.01 0.00 0.00 0.00 0.00 0.00 0.00 0.00 0.00 0.00
0.00 0.00 0.00 0.00 0.00 0.00 0.01 0.01 0.03 0.06 0.12 0.22 0.36 0.53 0.63 0.71 0.69 0.58 0.49 0.40 0.34 0.35 0.40 0.47 0.50 0.43 0.31 0.18 0.10 0.06 0.03 0.01 0.01 0.01 0.01 0.00 0.00 0.00 0.00 0.00 0.00 0.00 0.00
0.01 0.01 0.01 0.01 0.01 0.01 0.01 0.02 0.03 0.06 0.10 0.19 0.31 0.39 0.43 0.46 0.41 0.33 0.26 0.20 0.18 0.20 0.24 0.24 0.21 0.16 0.10 0.05 0.03 0.02 0.01 0.01 0.01 0.00 0.00 0.00 0.00 0.00 0.00 0.00 0.00 0.00 0.00
0.01 0.01 0.01 0.01 0.01 0.02 0.02 0.02 0.03 0.06 0.10 0.17 0.22 0.25 0.28 0.25 0.19 0.14 0.13 0.11 0.11 0.11 0.10 0.08 0.05 0.03 0.02 0.01 0.01 0.01 0.00 0.00 0.00 0.00 0.00 0.00 0.00 0.00 0.00 0.00 0.00 0.00 0.00
0.01 0.01 0.02 0.01 0.02 0.02 0.03 0.03 0.04 0.06 0.09 0.10 0.11 0.14 0.13 0.11 0.10 0.08 0.08 0.08 0.06 0.04 0.03 0.02 0.02 0.02 0.01 0.01 0.01 0.00 0.00 0.00 0.00 0.00 0.00 0.00 0.00 0.00 0.00 0.00 0.00 0.00 0.00
0.02 0.02 0.02 0.01 0.02 0.02 0.03 0.03 0.03 0.04 0.05 0.05 0.05 0.04 0.03 0.04 0.04 0.03 0.02 0.02 0.01 0.01 0.01 0.01 0.01 0.01 0.01 0.00 0.00 0.00 0.00 0.00 0.00 0.00 0.00 0.00 0.00 0.00 0.00 0.00 0.00 0.00 0.00
0.02 0.02 0.02 0.02 0.02 0.02 0.02 0.03 0.03 0.03 0.03 0.02 0.01 0.01 0.01 0.02 0.01 0.01 0.01 0.01 0.01 0.01 0.01 0.01 0.01 0.00 0.00 0.00 0.00 0.00 0.00 0.00 0.00 0.00 0.00 0.00 0.00 0.00 0.00 0.00 0.00 0.00 0.00
0.02 0.02 0.02 0.02 0.02 0.02 0.02 0.02 0.02 0.02 0.01 0.01 0.00 0.00 0.00 0.00 0.00 0.00 0.00 0.00 0.00 0.00 0.00 0.00 0.00 0.00 0.00 0.00 0.00 0.00 0.00 0.00 0.00 0.00 0.00 0.00 0.00 0.00 0.00 0.00 0.00 0.00 0.00
0.03 0.03 0.02 0.02 0.02 0.02 0.02 0.01 0.01 0.00 0.00 0.00 0.00 0.00 0.00 0.00 0.00 0.00 0.00 0.00 0.00 0.00 0.00 0.00 0.00 0.00 0.00 0.00 0.00 0.00 0.00 0.00 0.00 0.00 0.00 0.00 0.00 0.00 0.00 0.00 0.00 0.00 0.01
0.03 0.02 0.02 0.02 0.01 0.01 0.01 0.00 0.00 0.00 0.00 0.00 0.00 0.00 0.00 0.00 0.00 0.00 0.00 0.00 0.00 0.00 0.00 0.00 0.00 0.00 0.00 0.00 0.00 0.00 0.00 0.00 0.00 0.00 0.00 0.00 0.00 0.00 0.00 0.01 0.01 0.01 0.01
0.02 0.02 0.02 0.01 0.01 0.00 0.00 0.00 0.00 0.00 0.00 0.00 0.00 0.00 0.00 0.01 0.01 0.01 0.00 0.00 0.00 0.00 0.00 0.00 0.00 0.00 0.00 0.00 0.00 0.00 0.00 0.00 0.00 0.00 0.00 0.00 0.00 0.00 0.01 0.01 0.02 0.02 0.03
0.02 0.02 0.01 0.01 0.00 0.00 0.00 0.00 0.00 0.00 0.00 0.00 0.00 0.01 0.01 0.01 0.01 0.01 0.01 0.01 0.01 0.00 0.00 0.00 0.00 0.00 0.00 0.00 0.00 0.00 0.00 0.00 0.00 0.00 0.00 0.00 0.00 0.00 0.01 0.02 0.03 0.05 0.06
0.03 0.02 0.01 0.01 0.01 0.00 0.00 0.00 0.00 0.00 0.00 0.01 0.01 0.02 0.02 0.02 0.02 0.02 0.01 0.01 0.01 0.00 0.00 0.00 0.00 0.00 0.00 0.00 0.00 0.00 0.00 0.00 0.00 0.00 0.00 0.00 0.00 0.00 0.00 0.01 0.02 0.03 0.05
0.04 0.03 0.02 0.01 0.01 0.01 0.00 0.00 0.00 0.00 0.01 0.02 0.02 0.02 0.02 0.02 0.02 0.01 0.01 0.00 0.00 0.00 0.00 0.00 0.00 0.00 0.00 0.00 0.00 0.00 0.00 0.00 0.00 0.00 0.01 0.00 0.00 0.01 0.02 0.01 0.01 0.01 0.02
0.05 0.04 0.03 0.02 0.01 0.01 0.01 0.01 0.00 0.01 0.01 0.02 0.02 0.02 0.02 0.01 0.01 0.01 0.00 0.00 0.00 0.00 0.00 0.00 0.00 0.00 0.00 0.00 0.00 0.00 0.00 0.00 0.00 0.01 0.01 0.01 0.02 0.02 0.01 0.01 0.01 0.01 0.02
0.06 0.05 0.03 0.02 0.02 0.01 0.01 0.01 0.01 0.02 0.02 0.03 0.03 0.02 0.01 0.01 0.00 0.00 0.00 0.00 0.00 0.00 0.00 0.00 0.00 0.00 0.00 0.00 0.00 0.00 0.00 0.00 0.00 0.00 0.01 0.01 0.02 0.01 0.00 0.01 0.02 0.02 0.02
0.04 0.03 0.02 0.01 0.01 0.01 0.01 0.01 0.02 0.02 0.03 0.03 0.02 0.01 0.01 0.00 0.00 0.00 0.00 0.00 0.00 0.00 0.00 0.00 0.00 0.00 0.01 0.00 0.00 0.00 0.00 0.00 0.00 0.00 0.01 0.01 0.01 0.00 0.00 0.01 0.02 0.03 0.02
0.02 0.01 0.01 0.01 0.01 0.01 0.01 0.02 0.02 0.02 0.02 0.02 0.01 0.01 0.00 0.00 0.00 0.00 0.00 0.00 0.00 0.00 0.00 0.00 0.00 0.00 0.00 0.00 0.00 0.00 0.00 0.00 0.00 0.00 0.01 0.01 0.00 0.00 0.00 0.01 0.02 0.03 0.02
0.01 0.01 0.01 0.01 0.02 0.02 0.02 0.02 0.02 0.02 0.02 0.02 0.02 0.01 0.01 0.00 0.00 0.00 0.00 0.00 0.00 0.00 0.01 0.01 0.01 0.01 0.00 0.00 0.00 0.00 0.00 0.00 0.01 0.01 0.01 0.01 0.00 0.00 0.00 0.01 0.01 0.01 0.02
0.01 0.01 0.01 0.01 0.01 0.01 0.01 0.02 0.02 0.02 0.02 0.02 0.02 0.01 0.01 0.01 0.00 0.00 0.00 0.01 0.01 0.01 0.01 0.01 0.01 0.01 0.01 0.01 0.00 0.00 0.00 0.00 0.00 0.01 0.00 0.00 0.00 0.01 0.02 0.01 0.01 0.02 0.05
0.01 0.01 0.01 0.01 0.01 0.01 0.01 0.01 0.02 0.02 0.02 0.02 0.02 0.01 0.01 0.01 0.01 0.00 0.00 0.01 0.01 0.01 0.01 0.01 0.01 0.01 0.01 0.01 0.00 0.00 0.00 0.00 0.00 0.00 0.00 0.01 0.01 0.01 0.02 0.02 0.03 0.05 0.06
0.01 0.01 0.01 0.01 0.01 0.01 0.01 0.01 0.01 0.02 0.03 0.02 0.02 0.01 0.01 0.01 0.01 0.00 0.00 0.00 0.01 0.00 0.00 0.01 0.01 0.01 0.01 0.00 0.00 0.00 0.00 0.00 0.00 0.00 0.01 0.01 0.02 0.01 0.01 0.02 0.03 0.04 0.04
0.01 0.01 0.01 0.01 0.01 0.00 0.00 0.00 0.01 0.01 0.02 0.01 0.01 0.01 0.01 0.01 0.00 0.01 0.01 0.00 0.00 0.00 0.00 0.00 0.00 0.00 0.00 0.00 0.00 0.00 0.00 0.00 0.01 0.01 0.01 0.01 0.01 0.01 0.01 0.02 0.02 0.03 0.03
MSLP
1006.39 1006.34 1006.37 1006.53 1006.86 1007.41 1008.17 1009.13 1010.24 1011.41 1012.56 1013.61 1014.51 1015.24 1015.79 1016.19 1016.51 1016.79 1017.08 1017.41 1017.77 1018.18 1018.60 1019.02 1019.43 1019.81 1020.15 1020.47 1020.75 1021.00 1021.21 1021.35 1021.41 1021.40 1021.29 1021.12 1020.90 1020.66 1020.44 1020.27 1020.16 1020.10 1020.10
1006.65 1006.47 1006.38 1006.42 1006.66 1007.14 1007.87 1008.83 1009.96 1011.16 1012.34 1013.41 1014.32 1015.01 1015.52 1015.88 1016.15 1016.40 1016.69 1017.04 1017.47 1017.96 1018.49 1019.03 1019.53 1019.99 1020.39 1020.73 1021.01 1021.24 1021.41 1021.51 1021.55 1021.51 1021.38 1021.19 1020.95 1020.69 1020.44 1020.22 1020.07 1019.97 1019.93
1007.25 1006.99 1006.79 1006.72 1006.86 1007.26 1007.92 1008.83 1009.93 1011.11 1012.27 1013.32 1014.19 1014.85 1015.31 1015.63 1015.87 1016.11 1016.40 1016.79 1017.28 1017.85 1018.47 1019.09 1019.66 1020.16 1020.58 1020.91 1021.17 1021.36 1021.49 1021.56 1021.57 1021.51 1021.38 1021.19 1020.94 1020.66 1020.38 1020.13 1019.92 1019.78 1019.70
1008.21 1007.90 1007.63 1007.48 1007.52 1007.81 1008.38 1009.20 1010.21 1011.32 1012.41 1013.40 1014.22 1014.84 1015.27 1015.56 1015.79 1016.04 1016.36 1016.80 1017.34 1017.97 1018.65 1019.31 1019.91 1020.41 1020.82 1021.12 1021.33 1021.47 1021.55 1021.59 1021.58 1021.51 1021.38 1021.19 1020.94 1020.64 1020.33 1020.04 1019.79 1019.59 1019.46
1009.48 1009.17 1008.87 1008.65 1008.60 1008.78 1009.22 1009.92 1010.81 1011.80 1012.79 1013.70 1014.45 1015.03 1015.44 1015.73 1015.98 1016.26 1016.62 1017.10 1017.69 1018.36 1019.06 1019.72 1020.31 1020.79 1021.14 1021.38 1021.53 1021.62 1021.66 1021.67 1021.65 1021.58 1021.46 1021.27 1021.01 1020.70 1020.36 1020.02 1019.71 1019.45 1019.25
1010.96 1010.68 1010.37 1010.11 1009.98 1010.05 1010.36 1010.90 1011.64 1012.49 1013.37 1014.17 1014.86 1015.40 1015.81 1016.12 1016.41 1016.73 1017.15 1017.67 1018.29 1018.97 1019.66 1020.30 1020.84 1021.25 1021.54 1021.71 1021.80 1021.83 1021.83 1021.82 1021.79 1021.73 1021.61 1021.43 1021.18 1020.85 1020.47 1020.08 1019.70 1019.36 1019.09
1012.50 1012.29 1012.00 1011.72 1011.52 1011.49 1011.66 1012.05 1012.62 1013.32 1014.06 1014.77 1015.39 1015.90 1016.31 1016.66 1017.00 1017.38 1017.84 1018.39 1019.02 1019.69 1020.35 1020.93 1021.40 1021.74 1021.95 1022.05 1022.07 1022.06 1022.04 1022.01 1021.98 1021.93 1021.83 1021.66 1021.40 1021.05 1020.64 1020.20 1019.75 1019.34 1018.99
1013.94 1013.82 1013.58 1013.29 1013.05 1012.93 1012.97 1013.21 1013.64 1014.18 1014.79 1015.41 1015.97 1016.46 1016.88 1017.26 1017.64 1018.07 1018.56 1019.13 1019.75 1020.39 1020.99 1021.51 1021.90 1022.16 1022.30 1022.33 1022.31 1022.26 1022.22 1022.19 1022.17 1022.13 1022.05 1021.89 1021.63 1021.27 1020.84 1020.35 1019.85 1019.37 1018.96
1015.17 1015.14 1014.95 1014.69 1014.42 1014.24 1014.19 1014.31 1014.60 1015.01 1015.51 1016.04 1016.55 1017.01 1017.44 1017.84 1018.26 1018.71 1019.21 1019.77 1020.37 1020.95 1021.49 1021.94 1022.26 1022.45 1022.53 1022.52 1022.46 1022.40 1022.35 1022.32 1022.31 1022.28 1022.21 1022.06 1021.81 1021.46 1021.01 1020.50 1019.96 1019.45 1018.98
1016.09 1016.15 1016.03 1015.81 1015.55 1015.33 1015.23 1015.27 1015.47 1015.79 1016.21 1016.66 1017.12 1017.57 1017.98 1018.39 1018.81 1019.26 1019.75 1020.28 1020.82 1021.35 1021.82 1022.20 1022.46 1022.60 1022.64 1022.61 1022.53 1022.46 1022.41 1022.39 1022.38 1022.36 1022.30 1022.16 1021.92 1021.58 1021.13 1020.62 1020.08 1019.54 1019.05
1016.68 1016.82 1016.78 1016.61 1016.40 1016.20 1016.09 1016.10 1016.26 1016.53 1016.90 1017.31 1017.73 1018.15 1018.54 1018.93 1019.32 1019.74 1020.18 1020.65 1021.14 1021.60 1022.01 1022.33 1022.55 1022.66 1022.69 1022.64 1022.57 1022.49 1022.44 1022.41 1022.40 1022.37 1022.31 1022.17 1021.95 1021.62 1021.20 1020.71 1020.19 1019.66 1019.16
1017.00 1017.22 1017.26 1017.17 1017.02 1016.89 1016.82 1016.86 1017.02 1017.29 1017.64 1018.03 1018.43 1018.81 1019.17 1019.51 1019.85 1020.21 1020.59 1020.99 1021.40 1021.80 1022.15 1022.44 1022.63 1022.73 1022.76 1022.71 1022.64 1022.56 1022.49 1022.44 1022.40 1022.35 1022.27 1022.13 1021.92 1021.61 1021.22 1020.77 1020.27 1019.77 1019.28
1017.17 1017.45 1017.56 1017.57 1017.51 1017.47 1017.49 1017.60 1017.82 1018.12 1018.49 1018.87 1019.25 1019.60 1019.91 1020.20 1020.47 1020.75 1021.04 1021.37 1021.70 1022.04 1022.35 1022.61 1022.79 1022.90 1022.93 1022.89 1022.81 1022.72 1022.62 1022.52 1022.44 1022.35 1022.23 1022.07 1021.85 1021.56 1021.20 1020.78 1020.33 1019.85 1019.38
1017.30 1017.62 1017.81 1017.91 1017.96 1018.04 1018.17 1018.38 1018.68 1019.04 1019.44 1019.84 1020.20 1020.52 1020.78 1020.99 1021.18 1021.37 1021.58 1021.82 1022.09 1022.38 1022.66 1022.90 1023.09 1023.20 1023.24 1023.21 1023.11 1022.98 1022.84 1022.68 1022.53 1022.37 1022.20 1022.00 1021.76 1021.47 1021.13 1020.75 1020.32 1019.88 1019.42
1017.51 1017.86 1018.11 1018.29 1018.45 1018.64 1018.89 1019.21 1019.60 1020.02 1020.46 1020.87 1021.23 1021.50 1021.71 1021.85 1021.96 1022.07 1022.20 1022.36 1022.57 1022.82 1023.07 1023.31 1023.50 1023.63 1023.67 1023.63 1023.51 1023.34 1023.13 1022.89 1022.65 1022.41 1022.17 1021.92 1021.65 1021.35 1021.01 1020.64 1020.24 1019.81 1019.35
1017.86 1018.23 1018.52 1018.77 1019.02 1019.30 1019.65 1020.06 1020.52 1021.01 1021.48 1021.89 1022.22 1022.46 1022.61 1022.69 1022.72 1022.75 1022.81 1022.92 1023.08 1023.29 1023.53 1023.77 1023.96 1024.09 1024.13 1024.07 1023.92 1023.70 1023.41 1023.10 1022.77 1022.45 1022.13 1021.81 1021.50 1021.18 1020.83 1020.46 1020.06 1019.62 1019.15
1018.40 1018.76 1019.07 1019.36 1019.66 1020.01 1020.42 1020.89 1021.40 1021.90 1022.38 1022.78 1023.08 1023.28 1023.37 1023.38 1023.36 1023.33 1023.33 1023.40 1023.53 1023.72 1023.95 1024.18 1024.37 1024.50 1024.53 1024.45 1024.26 1023.98 1023.63 1023.24 1022.83 1022.43 1022.04 1021.67 1021.31 1020.96 1020.59 1020.20 1019.78 1019.32 1018.82
1019.08 1019.43 1019.73 1020.03 1020.35 1020.72 1021.14 1021.62 1022.13 1022.62 1023.07 1023.44 1023.70 1023.85 1023.89 1023.85 1023.78 1023.71 1023.68 1023.71 1023.82 1024.00 1024.22 1024.45 1024.64 1024.75 1024.77 1024.67 1024.45 1024.12 1023.72 1023.27 1022.80 1022.34 1021.89 1021.48 1021.08 1020.70 1020.30 1019.88 1019.43 1018.93 1018.39
1019.83 1020.15 1020.44 1020.71 1021.01 1021.36 1021.76 1022.20 1022.67 1023.11 1023.51 1023.82 1024.03 1024.12 1024.12 1024.05 1023.95 1023.86 1023.82 1023.84 1023.94 1024.11 1024.33 1024.54 1024.73 1024.83 1024.83 1024.70 1024.46 1024.10 1023.67 1023.18 1022.68 1022.18 1021.71 1021.26 1020.83 1020.42 1019.99 1019.54 1019.05 1018.51 1017.93
1020.58 1020.86 1021.10 1021.34 1021.59 1021.89 1022.23 1022.60 1022.99 1023.37 1023.69 1023.94 1024.09 1024.14 1024.11 1024.02 1023.91 1023.82 1023.78 1023.81 1023.91 1024.08 1024.29 1024.50 1024.67 1024.75 1024.73 1024.59 1024.33 1023.96 1023.51 1023.02 1022.50 1021.99 1021.50 1021.04 1020.60 1020.16 1019.71 1019.22 1018.69 1018.10 1017.48
1021.22 1021.47 1021.67 1021.85 1022.04 1022.27 1022.53 1022.82 1023.13 1023.42 1023.66 1023.84 1023.94 1023.96 1023.92 1023.83 1023.73 1023.66 1023.64 1023.69 1023.81 1023.98 1024.19 1024.39 1024.54 1024.61 1024.57 1024.42 1024.15 1023.78 1023.33 1022.84 1022.33 1021.82 1021.33 1020.87 1020.41 1019.96 1019.47 1018.95 1018.38 1017.76 1017.10
1021.71 1021.92 1022.07 1022.20 1022.34 1022.49 1022.68 1022.89 1023.12 1023.33 1023.50 1023.63 1023.69 1023.69 1023.65 1023.57 1023.51 1023.48 1023.49 1023.57 1023.71 1023.90 1024.11 1024.30 1024.44 1024.49 1024.45 1024.28 1024.01 1023.64 1023.20 1022.71 1022.21 1021.71 1021.22 1020.75 1020.29 1019.81 1019.30 1018.75 1018.14 1017.49 1016.81
1022.02 1022.20 1022.31 1022.40 1022.49 1022.59 1022.71 1022.86 1023.01 1023.16 1023.28 1023.37 1023.41 1023.41 1023.38 1023.35 1023.33 1023.34 1023.40 1023.53 1023.70 1023.90 1024.11 1024.30 1024.43 1024.47 1024.41 1024.24 1023.96 1023.59 1023.15 1022.67 1022.17 1021.67 1021.18 1020.69 1020.20 1019.70 1019.16 1018.58 1017.95 1017.28 1016.58
1022.17 1022.32 1022.41 1022.46 1022.52 1022.59 1022.67 1022.77 1022.88 1022.98 1023.07 1023.13 1023.17 1023.18 1023.18 1023.18 1023.21 1023.28 1023.40 1023.57 1023.77 1024.00 1024.22 1024.41 1024.53 1024.57 1024.49 1024.31 1024.03 1023.65 1023.21 1022.72 1022.21 1021.69 1021.17 1020.66 1020.14 1019.60 1019.03 1018.42 1017.77 1017.09 1016.39
1022.20 1022.32 1022.39 1022.44 1022.49 1022.53 1022.60 1022.67 1022.75 1022.83 1022.89 1022.94 1022.98 1023.00 1023.03 1023.08 1023.16 1023.28 1023.44 1023.65 1023.90 1024.15 1024.39 1024.58 1024.71 1024.73 1024.65 1024.46 1024.17 1023.78 1023.33 1022.82 1022.28 1021.73 1021.17 1020.61 1020.05 1019.47 1018.86 1018.23 1017.57 1016.89 1016.21
1022.16 1022.27 1022.34 1022.39 1022.44 1022.48 1022.54 1022.60 1022.66 1022.71 1022.76 1022.79 1022.83 1022.86 1022.91 1022.98 1023.10 1023.26 1023.47 1023.72 1024.00 1024.28 1024.53 1024.74 1024.87 1024.90 1024.82 1024.63 1024.32 1023.93 1023.45 1022.92 1022.34 1021.75 1021.14 1020.53 1019.91 1019.29 1018.65 1017.99 1017.33 1016.66 1016.00
Thickness
5823 5824 5821 5817 5810 5803 5794 5786 5778 5771 5763 5755 5746 5735 5726 5719 5711 5702 5695 5689 5685 5680 5675 5671 5665 5660 5658 5655 5652 5650 5647 5645 5644 5645 5645 5645 5644 5643 5641 5641 5641 5638 5635
5811 5812 5813 5812 5808 5802 5794 5786 5778 5770 5762 5755 5745 5734 5723 5713 5706 5698 5692 5685 5678 5673 5668 5662 5657 5652 5649 5646 5643 5641 5638 5636 5634 5636 5636 5636 5637 5633 5634 5630 5629 5627 5625
5799 5801 5802 5803 5803 5799 5793 5785 5777 5768 5759 5750 5739 5728 5717 5707 5700 5695 5689 5682 5674 5667 5660 5655 5650 5646 5642 5639 5635 5633 5631 5628 5625 5624 5625 5627 5631 5632 5626 5621 5618 5615 5613
5788 5790 5792 5792 5794 5794 5791 5783 5773 5763 5753 5744 5735 5724 5714 5704 5697 5690 5683 5674 5666 5661 5654 5649 5644 5639 5635 5632 5629 5625 5622 5620 5618 5615 5613 5612 5611 5612 5617 5613 5610 5604 5599
5769 5771 5774 5777 5780 5782 5779 5773 5763 5753 5745 5737 5729 5719 5710 5700 5690 5682 5673 5665 5658 5654 5649 5643 5637 5631 5627 5623 5619 5615 5613 5611 5609 5607 5605 5602 5598 5597 5596 5599 5596 5593 5589
5749 5752 5756 5759 5761 5762 5760 5755 5747 5739 5732 5725 5717 5711 5701 5692 5682 5673 5664 5656 5649 5643 5638 5632 5627 5622 5617 5613 5610 5606 5602 5600 5596 5594 5593 5591 5590 5589 5586 5584 5582 5580 5577
5731 5733 5735 5738 5739 5739 5738 5735 5729 5721 5716 5710 5704 5698 5690 5683 5674 5664 5655 5648 5640 5632 5626 5621 5616 5611 5606 5602 5599 5595 5591 5588 5584 5581 5580 5578 5576 5574 5570 5567 5566 5565 5563
5713 5714 5716 5718 5718 5719 5718 5715 5709 5703 5698 5694 5688 5683 5676 5669 5661 5652 5644 5636 5629 5621 5615 5609 5604 5600 5596 5592 5587 5584 5580 5574 5571 5568 5563 5562 5562 5558 5554 5550 5548 5548 5548
5695 5696 5697 5698 5699 5699 5698 5695 5692 5687 5682 5677 5671 5665 5659 5653 5644 5637 5630 5622 5615 5608 5602 5597 5593 5588 5583 5579 5575 5571 5566 5561 5558 5555 5551 5546 5546 5541 5536 5532 5529 5526 5528
5680 5680 5680 5680 5680 5680 5679 5678 5675 5670 5666 5661 5656 5649 5642 5636 5629 5623 5615 5608 5601 5595 5589 5584 5579 5573 5568 5564 5560 5556 5550 5546 5542 5536 5531 5527 5528 5524 5519 5516 5512 5508 5506
5666 5665 5664 5664 5665 5664 5664 5662 5658 5654 5649 5644 5639 5633 5626 5619 5613 5606 5598 5591 5585 5579 5573 5568 5563 5558 5553 5549 5544 5541 5535 5531 5526 5521 5518 5513 5508 5506 5503 5501 5497 5494 5490
5653 5651 5651 5651 5651 5649 5648 5645 5642 5638 5633 5627 5622 5615 5609 5603 5596 5588 5581 5574 5568 5562 5557 5552 5547 5542 5537 5532 5528 5525 5520 5516 5511 5507 5502 5499 5496 5491 5488 5485 5481 5477 5471
5642 5640 5638 5637 5636 5634 5632 5629 5626 5621 5616 5611 5605 5598 5591 5584 5577 5570 5563 5557 5551 5546 5541 5536 5531 5526 5521 5516 5512 5508 5505 5500 5496 5492 5488 5484 5480 5477 5475 5469 5465 5462 5457
5631 5628 5625 5621 5619 5617 5615 5612 5607 5602 5598 5592 5586 5579 5572 5565 5558 5551 5545 5540 5534 5529 5524 5520 5515 5510 5506 5501 5497 5493 5490 5486 5482 5479 5475 5472 5468 5464 5460 5456 5452 5448 5443
5619 5615 5610 5606 5603 5600 5596 5592 5587 5582 5578 5573 5566 5559 5552 5546 5540 5534 5528 5523 5518 5513 5508 5504 5499 5494 5490 5483 5477 5476 5476 5473 5470 5467 5464 5461 5456 5449 5444 5441 5439 5435 5432
5606 5600 5594 5590 5586 5582 5577 5573 5568 5563 5558 5553 5546 5539 5534 5528 5523 5517 5512 5507 5502 5497 5493 5488 5484 5479 5474 5462 5457 5455 5460 5460 5459 5456 5453 5450 5447 5442 5435 5429 5425 5421 5422
5591 5585 5579 5573 5569 5565 5560 5555 5550 5545 5539 5533 5527 5522 5516 5511 5507 5503 5497 5492 5487 5482 5477 5472 5468 5463 5455 5447 5444 5442 5444 5448 5447 5444 5442 5440 5437 5431 5428 5423 5420 5420 5419
5575 5568 5562 5557 5552 5548 5544 5539 5533 5528 5522 5517 5512 5507 5502 5497 5492 5487 5482 5476 5472 5467 5462 5457 5453 5448 5442 5434 5431 5430 5434 5438 5436 5434 5432 5430 5427 5424 5417 5415 5417 5419 5421
5559 5553 5548 5543 5538 5533 5528 5523 5517 5512 5507 5502 5497 5492 5488 5483 5477 5472 5466 5461 5457 5452 5448 5443 5439 5436 5431 5423 5420 5417 5425 5427 5426 5425 5424 5421 5419 5415 5410 5411 5416 5419 5421
5543 5538 5534 5529 5523 5517 5513 5509 5503 5498 5493 5489 5484 5478 5473 5468 5463 5456 5451 5447 5442 5439 5436 5431 5426 5423 5420 5413 5410 5406 5415 5416 5416 5417 5417 5416 5413 5409 5408 5410 5415 5418 5421
5529 5526 5521 5516 5510 5504 5500 5495 5491 5486 5481 5476 5470 5464 5459 5453 5448 5442 5437 5433 5431 5426 5423 5420 5416 5413 5408 5406 5401 5398 5402 5405 5407 5409 5411 5412 5408 5408 5409 5410 5414 5416 5416
5517 5513 5508 5502 5496 5492 5489 5485 5480 5474 5468 5463 5457 5451 5446 5442 5436 5431 5426 5422 5419 5417 5414 5410 5407 5405 5401 5397 5395 5392 5392 5392 5399 5404 5407 5408 5407 5409 5412 5415 5417 5417 5418
5506 5502 5497 5491 5486 5483 5480 5475 5468 5463 5457 5452 5446 5440 5435 5429 5425 5421 5418 5415 5411 5409 5406 5403 5400 5397 5394 5391 5388 5388 5389 5390 5394 5400 5402 5404 5408 5412 5417 5419 5419 5420 5424
5496 5492 5488 5484 5479 5475 5470 5465 5459 5453 5448 5442 5436 5431 5426 5422 5417 5412 5411 5407 5404 5401 5398 5395 5392 5389 5387 5385 5384 5384 5387 5390 5394 5399 5404 5407 5411 5415 5418 5422 5424 5425 5425
5489 5486 5482 5477 5471 5466 5461 5456 5450 5444 5439 5434 5429 5423 5419 5415 5410 5407 5401 5397 5392 5386 5383 5384 5382 5381 5380 5375 5371 5374 5380 5384 5389 5393 5402 5409 5413 5416 5420 5423 5426 5426 5427
5483 5479 5474 5469 5464 5459 5454 5448 5442 5436 5431 5427 5422 5419 5414 5410 5407 5403 5397 5384 5380 5375 5371 5368 5367 5371 5368 5368 5371 5374 5378 5382 5387 5394 5402 5406 5409 5413 5416 5420 5424 5426 5428